TimePDT,TemperatureF,Dew PointF,Humidity,Sea Level PressureIn,VisibilityMPH,Wind Direction,Wind SpeedMPH,Gust SpeedMPH,PrecipitationIn,Events,Conditions,WindDirDegrees,DateUTC
12:00 AM,39.2,35.6,87,29.71,9.0,East,4.6,-,N/A,,Overcast,90,2012-10-28 07:00:00
1:00 AM,35.6,33.8,93,29.72,9.0,Variable,2.3,-,N/A,,Mostly Cloudy,0,2012-10-28 08:00:00
2:00 AM,35.6,33.8,93,29.73,9.0,ENE,4.6,-,N/A,,Mostly Cloudy,60,2012-10-28 09:00:00
3:00 AM,35.6,33.8,93,29.73,9.0,ENE,5.8,-,N/A,,Overcast,70,2012-10-28 10:00:00
4:00 AM,37.4,35.6,93,29.73,9.0,Variable,2.3,-,N/A,,Overcast,0,2012-10-28 11:00:00
5:00 AM,37.4,35.6,93,29.74,9.0,ENE,4.6,-,N/A,,Overcast,70,2012-10-28 12:00:00
6:00 AM,37.4,35.6,93,29.74,9.0,East,3.5,-,N/A,,Overcast,90,2012-10-28 13:00:00
6:05 AM,37.4,35.6,93,29.74,9.0,East,2.3,-,N/A,Rain,Light Rain,90,2012-10-28 13:05:00
6:21 AM,37.4,35.6,93,29.74,9.0,East,3.5,-,N/A,,Overcast,90,2012-10-28 13:21:00
7:00 AM,37.4,35.6,93,29.74,9.0,SE,3.5,-,N/A,,Overcast,130,2012-10-28 14:00:00
8:00 AM,37.4,35.6,93,29.76,9.0,Variable,2.3,-,N/A,,Overcast,0,2012-10-28 15:00:00
8:28 AM,37.4,35.6,93,29.76,9.0,ESE,3.5,-,N/A,Rain,Light Rain,120,2012-10-28 15:28:00
9:00 AM,37.4,35.6,93,29.77,9.0,East,3.5,-,N/A,Rain,Light Rain,100,2012-10-28 16:00:00
9:07 AM,37.4,35.6,93,29.77,9.0,East,4.6,-,N/A,,Overcast,80,2012-10-28 16:07:00
9:22 AM,37.4,35.6,93,29.77,9.0,East,3.5,-,N/A,Rain,Light Rain,90,2012-10-28 16:22:00
9:33 AM,37.4,35.6,93,29.78,9.0,ENE,3.5,-,N/A,,Overcast,70,2012-10-28 16:33:00
9:49 AM,37.4,35.6,93,29.78,9.0,Variable,2.3,-,N/A,Rain,Light Rain,0,2012-10-28 16:49:00
10:00 AM,39.2,35.6,87,29.78,9.0,Variable,2.3,-,N/A,Rain,Light Rain,0,2012-10-28 17:00:00
10:46 AM,39.2,35.6,87,29.79,9.0,SE,3.5,-,N/A,,Overcast,140,2012-10-28 17:46:00
10:49 AM,39.2,35.6,87,29.79,9.0,SE,3.5,-,N/A,,Overcast,140,2012-10-28 17:49:00
11:00 AM,39.2,35.6,87,29.79,9.0,SE,4.6,-,N/A,,Overcast,130,2012-10-28 18:00:00
11:01 AM,39.2,35.6,87,29.79,9.0,SE,4.6,-,N/A,Rain,Light Rain,130,2012-10-28 18:01:00
11:12 AM,39.2,35.6,87,29.79,9.0,SE,2.3,-,N/A,Rain,Light Rain,140,2012-10-28 18:12:00
11:33 AM,39.2,37.4,93,29.79,9.0,Calm,Calm,-,N/A,,Overcast,0,2012-10-28 18:33:00
11:34 AM,39.2,35.6,87,29.79,9.0,Calm,Calm,-,N/A,,Overcast,0,2012-10-28 18:34:00
11:42 AM,39.2,37.4,93,29.79,9.0,Variable,2.3,-,N/A,Rain,Light Rain,0,2012-10-28 18:42:00
11:59 AM,39.2,37.4,93,29.80,9.0,Variable,2.3,-,N/A,,Overcast,0,2012-10-28 18:59:00
12:00 PM,39.2,37.4,93,29.80,9.0,Variable,2.3,-,N/A,,Overcast,0,2012-10-28 19:00:00
12:19 PM,39.2,37.4,93,29.80,9.0,SSE,4.6,-,N/A,Rain,Light Rain,150,2012-10-28 19:19:00
12:35 PM,39.2,37.4,93,29.79,9.0,ESE,5.8,-,N/A,Rain,Light Rain,120,2012-10-28 19:35:00
12:56 PM,39.2,37.4,93,29.80,9.0,Variable,2.3,-,N/A,Rain,Light Rain,0,2012-10-28 19:56:00
1:00 PM,39.2,37.4,93,29.80,9.0,Calm,Calm,-,N/A,Rain,Light Rain,0,2012-10-28 20:00:00
1:05 PM,39.2,37.4,93,29.79,9.0,Variable,2.3,-,N/A,Rain,Light Rain,0,2012-10-28 20:05:00
1:15 PM,39.2,37.4,93,29.79,9.0,SE,2.3,-,N/A,Rain,Light Rain,140,2012-10-28 20:15:00
1:39 PM,39.2,37.4,93,29.79,9.0,Calm,Calm,-,N/A,Rain,Light Rain,0,2012-10-28 20:39:00
1:41 PM,39.2,37.4,93,29.79,9.0,Calm,Calm,-,N/A,Rain,Light Rain,0,2012-10-28 20:41:00
1:43 PM,39.2,37.4,93,29.79,9.0,Calm,Calm,-,N/A,Rain,Light Rain,0,2012-10-28 20:43:00
1:58 PM,39.2,37.4,93,29.78,9.0,North,2.3,-,N/A,Rain,Light Rain,360,2012-10-28 20:58:00
2:00 PM,39.2,37.4,93,29.78,9.0,North,2.3,-,N/A,Rain,Light Rain,360,2012-10-28 21:00:00
2:53 PM,39.2,37.4,93,29.78,9.0,NW,3.5,-,N/A,Rain,Light Rain,320,2012-10-28 21:53:00
3:00 PM,39.2,37.4,93,29.78,9.0,NW,3.5,-,N/A,Rain,Light Rain,310,2012-10-28 22:00:00
4:00 PM,39.2,37.4,93,29.78,9.0,NNE,3.5,-,N/A,Rain,Light Rain,20,2012-10-28 23:00:00
4:12 PM,39.2,37.4,93,29.77,9.0,NE,3.5,-,N/A,Rain,Light Rain,50,2012-10-28 23:12:00
4:16 PM,39.2,37.4,93,29.77,9.0,NNE,3.5,-,N/A,Rain,Light Rain,20,2012-10-28 23:16:00
4:36 PM,39.2,37.4,93,29.77,9.0,Variable,2.3,-,N/A,Rain,Light Rain,0,2012-10-28 23:36:00
5:00 PM,39.2,37.4,93,29.77,6.0,North,2.3,-,N/A,Rain,Light Rain,10,2012-10-29 00:00:00
5:39 PM,37.4,37.4,100,29.76,9.0,North,5.8,-,N/A,Rain,Light Rain,360,2012-10-29 00:39:00
6:00 PM,37.4,37.4,100,29.75,9.0,North,5.8,-,N/A,Rain,Light Rain,10,2012-10-29 01:00:00
6:19 PM,37.4,37.4,100,29.75,9.0,North,4.6,-,N/A,Rain,Light Rain,10,2012-10-29 01:19:00
6:46 PM,37.4,37.4,100,29.75,9.0,North,5.8,-,N/A,Rain,Light Rain,360,2012-10-29 01:46:00
8:00 PM,37.4,37.4,100,29.74,9.0,NNE,2.3,-,N/A,Rain,Light Rain,30,2012-10-29 03:00:00
8:12 PM,37.4,37.4,100,29.74,9.0,NNE,3.5,-,N/A,Rain,Light Rain,20,2012-10-29 03:12:00
8:19 PM,37.4,37.4,100,29.74,9.0,NNE,3.5,-,N/A,Rain,Light Rain,20,2012-10-29 03:19:00
8:28 PM,37.4,37.4,100,29.73,9.0,ENE,3.5,-,N/A,Rain,Light Rain,60,2012-10-29 03:28:00
8:44 PM,37.4,37.4,100,29.73,9.0,ENE,4.6,-,N/A,Rain,Light Rain,60,2012-10-29 03:44:00
8:50 PM,37.4,37.4,100,29.72,9.0,ENE,4.6,-,N/A,Rain,Light Rain,60,2012-10-29 03:50:00
9:00 PM,37.4,37.4,100,29.72,9.0,ENE,4.6,-,N/A,Rain,Light Rain,60,2012-10-29 04:00:00
9:01 PM,37.4,37.4,100,29.72,9.0,ENE,4.6,-,N/A,Rain,Light Rain,60,2012-10-29 04:01:00
10:00 PM,37.4,37.4,100,29.71,9.0,NNE,4.6,-,N/A,Rain,Light Rain,30,2012-10-29 05:00:00
11:00 PM,37.4,37.4,100,29.69,9.0,ENE,3.5,-,N/A,Rain,Light Rain,70,2012-10-29 06:00:00